Location: Umburanas
(4.5000°S, 37.9667°W)
Time: 06:02:57
(UTC+00:00)

Ariane H10-3 - Pass Details

Date: 19 November 2019
Orbit: 307 x 24388 km, 7.4° (Epoch: 08 December)

Event Time Altitude Azimuth Distance (km) Brightness Sun altitude
Rises 21:19:24 0° 296° (WNW) 2,258 6.1 -13.0°
Reaches altitude 10° 21:20:56 10° 312° (NW) 1,691 5.2 -13.4°
Maximum altitude 21:23:58 27° 15° (NNE) 1,549 4.3 -14.1°
Enters shadow 21:27:56 18° 57° (ENE) 3,001 5.4 -15.0°
